| time (UTC) | temp F | wind direction | speed knots | gust knots | rain 1hr in | rain 24hr in | rain mn in | humidity % | barometer mb |
| 20260508041650 | 67 | 259 | 3.5 | 8.7 | 0.00 | 0.00 | 0.00 | 70 | 1015.5 |
| 20260508041149 | 67 | 238 | 3.5 | 7.0 | 0.00 | 0.00 | 0.00 | 70 | 1015.4 |
| 20260508040642 | 67 | 238 | 3.5 | 7.8 | 0.00 | 0.00 | 0.00 | 69 | 1015.3 |
| 20260508040138 | 67 | 252 | 3.5 | 7.8 | 0.00 | 0.00 | 0.00 | 69 | 1015.2 |
| 20260508035637 | 67 | 255 | 4.3 | 8.7 | 0.00 | 0.00 | 0.00 | 69 | 1015.2 |
| 20260508035137 | 67 | 248 | 4.3 | 8.7 | 0.00 | 0.00 | 0.00 | 69 | 1015.2 |
| 20260508034636 | 68 | 234 | 4.3 | 8.7 | 0.00 | 0.00 | 0.00 | 69 | 1015.1 |
| 20260508034135 | 68 | 225 | 3.5 | 7.0 | 0.00 | 0.00 | 0.00 | 68 | 1015.0 |
| 20260508033635 | 68 | 225 | 4.3 | 7.8 | 0.00 | 0.00 | 0.00 | 68 | 1014.9 |
| 20260508033135 | 68 | 225 | 4.3 | 7.8 | 0.00 | 0.00 | 0.00 | 68 | 1014.9 |
| 20260508032636 | 68 | 226 | 4.3 | 7.8 | 0.00 | 0.00 | 0.00 | 67 | 1014.8 |
| 20260508032135 | 69 | 225 | 4.3 | 8.7 | 0.00 | 0.00 | 0.00 | 67 | 1014.7 |
| 20260508031635 | 69 | 223 | 4.3 | 8.7 | 0.00 | 0.00 | 0.00 | 67 | 1014.7 |
| 20260508031131 | 69 | 223 | 5.2 | 7.8 | 0.00 | 0.00 | 0.00 | 66 | 1014.6 |
| 20260508030632 | 69 | 222 | 4.3 | 7.8 | 0.00 | 0.00 | 0.00 | 66 | 1014.6 |
| 20260508030131 | 69 | 221 | 3.5 | 7.0 | 0.00 | 0.00 | 0.00 | 65 | 1014.6 |
| 20260508025129 | 70 | 217 | 2.6 | 6.1 | 0.00 | 0.00 | 0.00 | 64 | 1014.4 |
| 20260508024628 | 70 | 217 | 3.5 | 6.1 | 0.00 | 0.00 | 0.00 | 64 | 1014.3 |
| 20260508024125 | 70 | 217 | 3.5 | 6.1 | 0.00 | 0.00 | 0.00 | 63 | 1014.3 |
| 20260508023857 | 71 | 218 | 3.5 | 7.0 | 0.00 | 0.00 | 0.00 | 63 | 1014.2 |
| 20260508023123 | 71 | 217 | 4.3 | 7.0 | 0.00 | 0.00 | 0.00 | 62 | 1014.2 |
| 20260508022855 | 71 | 212 | 4.3 | 6.1 | 0.00 | 0.00 | 0.00 | 62 | 1014.1 |
| 20260508022121 | 71 | 201 | 5.2 | 7.8 | 0.00 | 0.00 | 0.00 | 62 | 1014.0 |
| 20260508021852 | 71 | 202 | 5.2 | 11.3 | 0.00 | 0.00 | 0.00 | 61 | 1014.0 |
| 20260508021122 | 72 | 223 | 5.2 | 11.3 | 0.00 | 0.00 | 0.00 | 60 | 1014.0 |
| 20260508020620 | 72 | 192 | 5.2 | 9.6 | 0.00 | 0.00 | 0.00 | 60 | 1013.9 |
| 20260508020117 | 73 | 202 | 5.2 | 8.7 | 0.00 | 0.00 | 0.00 | 59 | 1013.8 |
| 20260508015617 | 73 | 190 | 6.1 | 9.6 | 0.00 | 0.00 | 0.00 | 58 | 1013.8 |
| 20260508015113 | 74 | 215 | 6.1 | 9.6 | 0.00 | 0.00 | 0.00 | 58 | 1013.7 |
| 20260508014612 | 74 | 214 | 6.1 | 10.4 | 0.00 | 0.00 | 0.00 | 57 | 1013.7 |
| 20260508014344 | 75 | 213 | 6.1 | 11.3 | 0.00 | 0.00 | 0.00 | 56 | 1013.7 |
| 20260508013609 | 75 | 219 | 5.2 | 11.3 | 0.00 | 0.00 | 0.00 | 55 | 1013.5 |
| 20260508013341 | 76 | 215 | 5.2 | 9.6 | 0.00 | 0.00 | 0.00 | 55 | 1013.5 |
| 20260508012609 | 76 | 217 | 5.2 | 8.7 | 0.00 | 0.00 | 0.00 | 54 | 1013.5 |
| 20260508012107 | 76 | 214 | 6.1 | 11.3 | 0.00 | 0.00 | 0.00 | 54 | 1013.5 |
| 20260508011838 | 76 | 211 | 7.0 | 11.3 | 0.00 | 0.00 | 0.00 | 53 | 1013.4 |
| 20260508011105 | 77 | 215 | 6.1 | 11.3 | 0.00 | 0.00 | 0.00 | 52 | 1013.3 |
| 20260508010605 | 77 | 217 | 6.1 | 10.4 | 0.00 | 0.00 | 0.00 | 52 | 1013.3 |
| 20260508010107 | 77 | 206 | 6.1 | 11.3 | 0.00 | 0.00 | 0.00 | 52 | 1013.3 |
| 20260508005603 | 77 | 225 | 6.1 | 11.3 | 0.00 | 0.00 | 0.00 | 51 | 1013.3 |
| 20260508005335 | 78 | 218 | 6.1 | 13.0 | 0.00 | 0.00 | 0.00 | 51 | 1013.3 |
| 20260508004604 | 78 | 222 | 7.0 | 13.0 | 0.00 | 0.00 | 0.00 | 50 | 1013.2 |
| 20260508004103 | 78 | 219 | 7.0 | 11.3 | 0.00 | 0.00 | 0.00 | 50 | 1013.1 |
| 20260508003833 | 78 | 225 | 7.0 | 11.3 | 0.00 | 0.00 | 0.00 | 49 | 1013.2 |
| 20260508003059 | 78 | 217 | 7.0 | 12.2 | 0.00 | 0.00 | 0.00 | 48 | 1013.2 |
| 20260508002600 | 79 | 221 | 7.0 | 12.2 | 0.00 | 0.00 | 0.00 | 48 | 1013.1 |
| 20260508002058 | 79 | 220 | 7.0 | 12.2 | 0.00 | 0.00 | 0.00 | 47 | 1013.1 |
| 20260508001557 | 80 | 219 | 6.1 | 12.2 | 0.00 | 0.00 | 0.00 | 47 | 1013.2 |
| 20260508001055 | 80 | 207 | 7.0 | 12.2 | 0.00 | 0.00 | 0.00 | 46 | 1013.1 |
| 20260508000608 | 79 | 246 | 7.8 | 15.6 | 0.00 | 0.00 | 0.00 | 47 | 1013.1 |
| 20260508000107 | 79 | 229 | 8.7 | 15.6 | 0.00 | 0.00 | 0.00 | 47 | 1013.1 |
| 20260507235551 | 80 | 221 | 7.8 | 15.6 | 0.00 | 0.00 | 0.00 | 47 | 1013.0 |
| 20260507235052 | 80 | 236 | 8.7 | 15.6 | 0.00 | 0.00 | 0.00 | 47 | 1013.1 |
| 20260507234552 | 80 | 232 | 8.7 | 15.6 | 0.00 | 0.00 | 0.00 | 46 | 1013.1 |
| 20260507234052 | 80 | 229 | 8.7 | 15.6 | 0.00 | 0.00 | 0.00 | 46 | 1013.1 |
| 20260507233548 | 80 | 206 | 7.8 | 14.8 | 0.00 | 0.00 | 0.00 | 46 | 1013.1 |
| 20260507233047 | 80 | 221 | 7.8 | 15.6 | 0.00 | 0.00 | 0.00 | 46 | 1013.2 |
| 20260507232547 | 80 | 221 | 8.7 | 15.6 | 0.00 | 0.00 | 0.00 | 46 | 1013.1 |
| 20260507232043 | 80 | 218 | 9.6 | 15.6 | 0.00 | 0.00 | 0.00 | 46 | 1013.0 |
| 20260507231543 | 81 | 176 | 7.8 | 15.6 | 0.00 | 0.00 | 0.00 | 45 | 1013.1 |
| 20260507231043 | 81 | 243 | 7.8 | 14.8 | 0.00 | 0.00 | 0.00 | 45 | 1013.1 |
| 20260507230541 | 81 | 235 | 8.7 | 14.8 | 0.00 | 0.00 | 0.00 | 45 | 1013.1 |
| 20260507230326 | 81 | 212 | 8.7 | 13.9 | 0.00 | 0.00 | 0.00 | 45 | 1013.0 |
| 20260507225542 | 81 | 207 | 8.7 | 14.8 | 0.00 | 0.00 | 0.00 | 45 | 1013.1 |
| 20260507225041 | 82 | 223 | 7.8 | 14.8 | 0.00 | 0.00 | 0.00 | 44 | 1013.1 |
| 20260507224541 | 82 | 229 | 7.8 | 13.0 | 0.00 | 0.00 | 0.00 | 45 | 1013.1 |
| 20260507224041 | 82 | 217 | 7.8 | 15.6 | 0.00 | 0.00 | 0.00 | 45 | 1013.1 |
| 20260507223542 | 82 | 229 | 7.8 | 15.6 | 0.00 | 0.00 | 0.00 | 45 | 1013.2 |
| 20260507223041 | 82 | 219 | 7.8 | 14.8 | 0.00 | 0.00 | 0.00 | 45 | 1013.1 |
| 20260507222542 | 82 | 217 | 7.8 | 14.8 | 0.00 | 0.00 | 0.00 | 45 | 1013.2 |
| 20260507222042 | 82 | 222 | 7.8 | 13.9 | 0.00 | 0.00 | 0.00 | 45 | 1013.2 |
| 20260507221541 | 83 | 225 | 8.7 | 13.9 | 0.00 | 0.00 | 0.00 | 45 | 1013.3 |
| 20260507221041 | 83 | 217 | 7.8 | 13.0 | 0.00 | 0.00 | 0.00 | 45 | 1013.4 |
| 20260507220826 | 83 | 215 | 7.8 | 13.9 | 0.00 | 0.00 | 0.00 | 45 | 1013.4 |
| 20260507220038 | 83 | 216 | 7.8 | 14.8 | 0.00 | 0.00 | 0.00 | 45 | 1013.5 |
| 20260507215550 | 83 | 214 | 7.8 | 14.8 | 0.00 | 0.00 | 0.00 | 45 | 1013.5 |
| 20260507215038 | 84 | 215 | 7.0 | 13.0 | 0.00 | 0.00 | 0.00 | 44 | 1013.6 |
| 20260507214537 | 84 | 200 | 7.0 | 12.2 | 0.00 | 0.00 | 0.00 | 43 | 1013.6 |
| 20260507214038 | 84 | 218 | 7.0 | 13.9 | 0.00 | 0.00 | 0.00 | 43 | 1013.8 |
| 20260507213537 | 84 | 237 | 6.1 | 13.9 | 0.00 | 0.00 | 0.00 | 42 | 1013.8 |
| 20260507213038 | 84 | 223 | 6.1 | 13.9 | 0.00 | 0.00 | 0.00 | 43 | 1013.8 |
| 20260507212037 | 84 | 226 | 6.1 | 13.9 | 0.00 | 0.00 | 0.00 | 41 | 1013.9 |
| 20260507211535 | 85 | 218 | 6.1 | 13.0 | 0.00 | 0.00 | 0.00 | 41 | 1013.9 |
| 20260507211036 | 85 | 232 | 6.1 | 11.3 | 0.00 | 0.00 | 0.00 | 41 | 1013.9 |
| 20260507210534 | 84 | 209 | 7.0 | 11.3 | 0.00 | 0.00 | 0.00 | 41 | 1014.0 |
| 20260507210035 | 84 | 254 | 7.8 | 13.0 | 0.00 | 0.00 | 0.00 | 42 | 1014.1 |
| 20260507205536 | 84 | 218 | 7.0 | 13.0 | 0.00 | 0.00 | 0.00 | 41 | 1014.1 |
| 20260507205035 | 84 | 223 | 6.1 | 12.2 | 0.00 | 0.00 | 0.00 | 42 | 1014.1 |
| 20260507204535 | 83 | 229 | 6.1 | 12.2 | 0.00 | 0.00 | 0.00 | 41 | 1014.1 |
| 20260507204036 | 84 | 224 | 6.1 | 12.2 | 0.00 | 0.00 | 0.00 | 40 | 1014.2 |
| 20260507203535 | 84 | 217 | 5.2 | 13.0 | 0.00 | 0.00 | 0.00 | 41 | 1014.2 |
| 20260507203035 | 84 | 249 | 5.2 | 13.0 | 0.00 | 0.00 | 0.00 | 41 | 1014.3 |
| 20260507202535 | 83 | 234 | 6.1 | 9.6 | 0.00 | 0.00 | 0.00 | 42 | 1014.3 |
| 20260507202035 | 83 | 222 | 5.2 | 13.0 | 0.00 | 0.00 | 0.00 | 43 | 1014.4 |
| 20260507201535 | 83 | 211 | 5.2 | 13.0 | 0.00 | 0.00 | 0.00 | 42 | 1014.4 |
| 20260507201035 | 83 | 218 | 5.2 | 10.4 | 0.00 | 0.00 | 0.00 | 42 | 1014.5 |
| 20260507200536 | 83 | 234 | 5.2 | 10.4 | 0.00 | 0.00 | 0.00 | 41 | 1014.6 |
| 20260507200031 | 83 | 248 | 5.2 | 10.4 | 0.00 | 0.00 | 0.00 | 41 | 1014.7 |
| 20260507195532 | 83 | 234 | 5.2 | 9.6 | 0.00 | 0.00 | 0.00 | 42 | 1014.7 |
| 20260507195031 | 83 | 235 | 5.2 | 10.4 | 0.00 | 0.00 | 0.00 | 41 | 1014.8 |
| 20260507194527 | 82 | 264 | 4.3 | 10.4 | 0.00 | 0.00 | 0.00 | 43 | 1014.8 |
| 20260507194026 | 82 | 240 | 5.2 | 10.4 | 0.00 | 0.00 | 0.00 | 42 | 1014.9 |
| 20260507193528 | 82 | 239 | 4.3 | 10.4 | 0.00 | 0.00 | 0.00 | 43 | 1014.9 |
| 20260507193021 | 81 | 237 | 4.3 | 8.7 | 0.00 | 0.00 | 0.00 | 44 | 1015.0 |
| 20260507192521 | 80 | 234 | 4.3 | 8.7 | 0.00 | 0.00 | 0.00 | 43 | 1015.1 |
| 20260507192021 | 80 | 223 | 4.3 | 8.7 | 0.00 | 0.00 | 0.00 | 44 | 1015.1 |
| 20260507191521 | 80 | 224 | 4.3 | 8.7 | 0.00 | 0.00 | 0.00 | 44 | 1015.3 |
| 20260507191021 | 80 | 236 | 4.3 | 9.6 | 0.00 | 0.00 | 0.00 | 45 | 1015.3 |
| 20260507190521 | 80 | 234 | 5.2 | 9.6 | 0.00 | 0.00 | 0.00 | 45 | 1015.4 |
| 20260507190024 | 80 | 224 | 3.5 | 8.7 | 0.00 | 0.00 | 0.00 | 44 | 1015.5 |
| 20260507185519 | 80 | 219 | 2.6 | 6.1 | 0.00 | 0.00 | 0.00 | 46 | 1015.6 |
| 20260507185020 | 79 | 218 | 3.5 | 7.8 | 0.00 | 0.00 | 0.00 | 47 | 1015.7 |
| 20260507184517 | 78 | 222 | 3.5 | 9.6 | 0.00 | 0.00 | 0.00 | 47 | 1015.8 |
| 20260507184018 | 78 | 227 | 3.5 | 9.6 | 0.00 | 0.00 | 0.00 | 48 | 1015.8 |
| 20260507183517 | 77 | 229 | 3.5 | 7.0 | 0.00 | 0.00 | 0.00 | 47 | 1015.8 |
| 20260507183018 | 77 | 234 | 2.6 | 7.0 | 0.00 | 0.00 | 0.00 | 48 | 1015.9 |
| 20260507182516 | 76 | 238 | 3.5 | 7.0 | 0.00 | 0.00 | 0.00 | 48 | 1015.9 |
| 20260507182013 | 76 | 238 | 3.5 | 7.0 | 0.00 | 0.00 | 0.00 | 48 | 1016.0 |
| 20260507181513 | 76 | 250 | 3.5 | 7.0 | 0.00 | 0.00 | 0.00 | 48 | 1016.0 |
| 20260507181011 | 76 | 249 | 3.5 | 7.0 | 0.00 | 0.00 | 0.00 | 49 | 1016.1 |
| 20260507180508 | 75 | 240 | 3.5 | 6.1 | 0.00 | 0.00 | 0.00 | 48 | 1016.2 |
| 20260507180009 | 76 | 242 | 2.6 | 6.1 | 0.00 | 0.00 | 0.00 | 48 | 1016.2 |
| 20260507175508 | 75 | 244 | 1.7 | 5.2 | 0.00 | 0.00 | 0.00 | 50 | 1016.3 |
| 20260507175007 | 75 | 244 | 2.6 | 6.1 | 0.00 | 0.00 | 0.00 | 50 | 1016.3 |
| 20260507174738 | 74 | 244 | 2.6 | 6.1 | 0.00 | 0.00 | 0.00 | 51 | 1016.3 |
| 20260507174007 | 74 | 254 | 2.6 | 6.1 | 0.00 | 0.00 | 0.00 | 52 | 1016.3 |
| 20260507173506 | 73 | 256 | 1.7 | 6.1 | 0.00 | 0.00 | 0.00 | 53 | 1016.3 |
| 20260507173003 | 73 | 262 | 1.7 | 5.2 | 0.00 | 0.00 | 0.00 | 54 | 1016.4 |
| 20260507172504 | 72 | 262 | 2.6 | 5.2 | 0.00 | 0.00 | 0.00 | 54 | 1016.4 |
| 20260507172001 | 72 | 262 | 1.7 | 5.2 | 0.00 | 0.00 | 0.00 | 55 | 1016.3 |
| 20260507171459 | 72 | 268 | 0.9 | 4.3 | 0.00 | 0.00 | 0.00 | 56 | 1016.4 |
| 20260507171000 | 71 | 267 | 1.7 | 4.3 | 0.00 | 0.00 | 0.00 | 56 | 1016.5 |
| 20260507170727 | 71 | 268 | 1.7 | 4.3 | 0.00 | 0.00 | 0.00 | 58 | 1016.5 |
| 20260507165955 | 71 | 268 | 2.6 | 5.2 | 0.00 | 0.00 | 0.00 | 58 | 1016.5 |
| 20260507165456 | 71 | 268 | 2.6 | 5.2 | 0.00 | 0.00 | 0.00 | 59 | 1016.5 |
| 20260507165227 | 70 | 271 | 2.6 | 4.3 | 0.00 | 0.00 | 0.00 | 60 | 1016.4 |
| 20260507164455 | 70 | 271 | 2.6 | 5.2 | 0.00 | 0.00 | 0.00 | 59 | 1016.5 |
| 20260507164227 | 69 | 271 | 1.7 | 5.2 | 0.00 | 0.00 | 0.00 | 61 | 1016.6 |
| 20260507163455 | 69 | 273 | 1.7 | 5.2 | 0.00 | 0.00 | 0.00 | 62 | 1016.6 |
| 20260507162951 | 69 | 274 | 1.7 | 4.3 | 0.00 | 0.00 | 0.00 | 61 | 1016.6 |
| 20260507162452 | 68 | 275 | 1.7 | 3.5 | 0.00 | 0.00 | 0.00 | 63 | 1016.6 |
| 20260507161948 | 68 | 275 | 2.6 | 5.2 | 0.00 | 0.00 | 0.00 | 62 | 1016.6 |
| 20260507161446 | 68 | 276 | 2.6 | 5.2 | 0.00 | 0.00 | 0.00 | 63 | 1016.6 |
| 20260507160947 | 67 | 278 | 1.7 | 3.5 | 0.00 | 0.00 | 0.00 | 65 | 1016.6 |
| 20260507160446 | 67 | 278 | 0.9 | 4.3 | 0.00 | 0.00 | 0.00 | 66 | 1016.5 |
| 20260507155945 | 67 | 279 | 1.7 | 4.3 | 0.00 | 0.00 | 0.00 | 66 | 1016.6 |
| 20260507155440 | 66 | 234 | 1.7 | 4.3 | 0.00 | 0.00 | 0.00 | 67 | 1016.6 |
| 20260507154941 | 66 | 234 | 1.7 | 4.3 | 0.00 | 0.00 | 0.00 | 68 | 1016.6 |
| 20260507154712 | 65 | 234 | 1.7 | 3.5 | 0.00 | 0.00 | 0.00 | 70 | 1016.9 |
| 20260507153939 | 65 | 234 | 0.9 | 3.5 | 0.00 | 0.00 | 0.00 | 70 | 1016.9 |
| 20260507153439 | 65 | 235 | 0.9 | 3.5 | 0.00 | 0.00 | 0.00 | 72 | 1016.9 |
| 20260507152939 | 64 | 235 | 1.7 | 3.5 | 0.00 | 0.00 | 0.00 | 72 | 1016.9 |
| 20260507152708 | 64 | 235 | 0.9 | 3.5 | 0.00 | 0.00 | 0.00 | 72 | 1016.9 |
| 20260507151938 | 63 | 235 | 0.9 | 3.5 | 0.00 | 0.00 | 0.00 | 74 | 1017.0 |
| 20260507151437 | 63 | 235 | 1.7 | 3.5 | 0.00 | 0.00 | 0.00 | 74 | 1016.9 |
| 20260507150937 | 63 | 235 | 1.7 | 4.3 | 0.00 | 0.00 | 0.00 | 75 | 1017.0 |
| 20260507150437 | 62 | 235 | 1.7 | 4.3 | 0.00 | 0.00 | 0.00 | 75 | 1016.9 |
| 20260507150209 | 62 | 234 | 1.7 | 3.5 | 0.00 | 0.00 | 0.00 | 75 | 1016.9 |
| 20260507145438 | 62 | 235 | 0.9 | 3.5 | 0.00 | 0.00 | 0.00 | 76 | 1016.9 |
| 20260507144938 | 62 | 238 | 0.9 | 3.5 | 0.00 | 0.00 | 0.00 | 76 | 1016.8 |
| 20260507144437 | 62 | 238 | 0.9 | 2.6 | 0.00 | 0.00 | 0.00 | 77 | 1016.8 |
| 20260507143937 | 62 | 238 | 0.0 | 1.7 | 0.00 | 0.00 | 0.00 | 78 | 1016.8 |
| 20260507143707 | 61 | 238 | 0.0 | 1.7 | 0.00 | 0.00 | 0.00 | 78 | 1016.6 |
| 20260507142935 | 61 | 239 | 0.0 | 0.9 | 0.00 | 0.00 | 0.00 | 79 | 1016.6 |
| 20260507142435 | 61 | 220 | 0.0 | 0.0 | 0.00 | 0.00 | 0.00 | 79 | 1016.8 |
| 20260507141935 | 61 | 220 | 0.0 | 0.0 | 0.00 | 0.00 | 0.00 | 81 | 1016.6 |
| 20260507141435 | 60 | 220 | 0.0 | 0.0 | 0.00 | 0.00 | 0.00 | 82 | 1016.6 |
| 20260507140935 | 60 | 220 | 0.0 | 0.0 | 0.00 | 0.00 | 0.00 | 82 | 1016.5 |
| 20260507140435 | 59 | 220 | 0.0 | 0.0 | 0.00 | 0.00 | 0.00 | 82 | 1016.5 |
| 20260507135936 | 59 | 220 | 0.0 | 0.0 | 0.00 | 0.00 | 0.00 | 83 | 1016.4 |
| 20260507135706 | 58 | 220 | 0.0 | 0.0 | 0.00 | 0.00 | 0.00 | 83 | 1016.4 |
| 20260507134936 | 58 | 220 | 0.0 | 0.0 | 0.00 | 0.00 | 0.00 | 83 | 1016.4 |
| 20260507134434 | 57 | 220 | 0.0 | 0.0 | 0.00 | 0.00 | 0.00 | 83 | 1016.3 |
| 20260507133932 | 57 | 220 | 0.0 | 0.0 | 0.00 | 0.00 | 0.00 | 83 | 1016.3 |
| 20260507133431 | 57 | 220 | 0.0 | 0.0 | 0.00 | 0.00 | 0.00 | 83 | 1016.2 |
| 20260507132930 | 57 | 220 | 0.0 | 0.9 | 0.00 | 0.00 | 0.00 | 83 | 1016.2 |
| 20260507132702 | 57 | 220 | 0.0 | 0.9 | 0.00 | 0.00 | 0.00 | 83 | 1016.1 |
| 20260507131930 | 56 | 220 | 0.0 | 0.0 | 0.00 | 0.00 | 0.00 | 83 | 1016.1 |
| 20260507131430 | 56 | 220 | 0.0 | 0.0 | 0.00 | 0.00 | 0.00 | 83 | 1016.1 |
| 20260507131159 | 56 | 220 | 0.0 | 0.0 | 0.00 | 0.00 | 0.00 | 83 | 1016.1 |
| 20260507130427 | 56 | 220 | 0.0 | 0.0 | 0.00 | 0.00 | 0.00 | 83 | 1016.1 |
| 20260507130158 | 56 | 220 | 0.0 | 0.0 | 0.00 | 0.00 | 0.00 | 82 | 1016.1 |
| 20260507125425 | 56 | 220 | 0.0 | 0.0 | 0.00 | 0.00 | 0.00 | 82 | 1016.1 |
| 20260507124923 | 56 | 220 | 0.0 | 0.0 | 0.00 | 0.00 | 0.00 | 82 | 1016.0 |
| 20260507124424 | 57 | 220 | 0.0 | 0.0 | 0.00 | 0.00 | 0.00 | 82 | 1016.0 |
| 20260507123920 | 57 | 220 | 0.0 | 0.0 | 0.00 | 0.00 | 0.00 | 82 | 1016.1 |
| 20260507123420 | 57 | 220 | 0.0 | 0.0 | 0.00 | 0.00 | 0.00 | 82 | 1016.1 |
| 20260507122920 | 57 | 220 | 0.0 | 0.0 | 0.00 | 0.00 | 0.00 | 82 | 1016.0 |
| 20260507121929 | 57 | 220 | 0.0 | 0.9 | 0.00 | 0.00 | 0.00 | 82 | 1016.1 |
| 20260507121416 | 57 | 220 | 0.0 | 0.0 | 0.00 | 0.00 | 0.00 | 82 | 1016.1 |
| 20260507120910 | 57 | 220 | 0.0 | 0.0 | 0.00 | 0.00 | 0.00 | 81 | 1016.2 |
| 20260507120407 | 57 | 220 | 0.0 | 0.0 | 0.00 | 0.00 | 0.00 | 81 | 1016.2 |
| 20260507120139 | 57 | 220 | 0.0 | 0.0 | 0.00 | 0.00 | 0.00 | 81 | 1016.2 |
| 20260507115405 | 57 | 220 | 0.0 | 0.0 | 0.00 | 0.00 | 0.00 | 81 | 1016.2 |
| 20260507114904 | 57 | 220 | 0.0 | 0.9 | 0.00 | 0.00 | 0.00 | 80 | 1016.2 |
| 20260507114404 | 57 | 220 | 0.0 | 0.9 | 0.00 | 0.00 | 0.00 | 80 | 1016.2 |
| 20260507113859 | 57 | 220 | 0.0 | 0.9 | 0.00 | 0.00 | 0.00 | 80 | 1016.2 |
| 20260507113358 | 57 | 220 | 0.0 | 0.0 | 0.00 | 0.00 | 0.00 | 80 | 1016.3 |
| 20260507112859 | 58 | 220 | 0.0 | 0.0 | 0.00 | 0.00 | 0.00 | 80 | 1016.2 |
| 20260507112354 | 58 | 220 | 0.0 | 0.9 | 0.00 | 0.00 | 0.00 | 79 | 1016.3 |
| 20260507111852 | 58 | 220 | 0.0 | 1.7 | 0.00 | 0.00 | 0.00 | 79 | 1016.4 |
| 20260507111350 | 58 | 220 | 0.0 | 1.7 | 0.00 | 0.00 | 0.00 | 79 | 1016.4 |
| 20260507110845 | 58 | 220 | 0.0 | 0.9 | 0.00 | 0.00 | 0.00 | 79 | 1016.4 |
| 20260507110345 | 58 | 220 | 0.0 | 0.0 | 0.00 | 0.00 | 0.00 | 79 | 1016.4 |
| 20260507105341 | 58 | 220 | 0.0 | 0.9 | 0.00 | 0.00 | 0.00 | 79 | 1016.4 |
| 20260507104840 | 58 | 220 | 0.0 | 0.0 | 0.00 | 0.00 | 0.00 | 79 | 1016.5 |
| 20260507104341 | 58 | 220 | 0.0 | 0.9 | 0.00 | 0.00 | 0.00 | 79 | 1016.5 |
| 20260507103839 | 58 | 220 | 0.0 | 1.7 | 0.00 | 0.00 | 0.00 | 79 | 1016.5 |
| 20260507103338 | 58 | 220 | 0.0 | 1.7 | 0.00 | 0.00 | 0.00 | 80 | 1016.5 |
| 20260507102837 | 57 | 220 | 0.0 | 0.9 | 0.00 | 0.00 | 0.00 | 80 | 1016.5 |
| 20260507102608 | 57 | 220 | 0.0 | 0.0 | 0.00 | 0.00 | 0.00 | 79 | 1016.5 |
| 20260507101834 | 57 | 220 | 0.0 | 0.0 | 0.00 | 0.00 | 0.00 | 78 | 1016.6 |
| 20260507101334 | 57 | 220 | 0.0 | 0.0 | 0.00 | 0.00 | 0.00 | 78 | 1016.8 |
| 20260507100832 | 57 | 220 | 0.0 | 0.0 | 0.00 | 0.00 | 0.00 | 78 | 1016.6 |
| 20260507100333 | 58 | 220 | 0.0 | 0.0 | 0.00 | 0.00 | 0.00 | 79 | 1016.8 |
| 20260507095833 | 58 | 220 | 0.0 | 0.0 | 0.00 | 0.00 | 0.00 | 78 | 1016.8 |
| 20260507095333 | 58 | 220 | 0.0 | 0.0 | 0.00 | 0.00 | 0.00 | 77 | 1016.9 |
| 20260507094830 | 58 | 220 | 0.0 | 0.0 | 0.00 | 0.00 | 0.00 | 78 | 1016.9 |
| 20260507094330 | 58 | 220 | 0.0 | 0.0 | 0.00 | 0.00 | 0.00 | 78 | 1016.9 |
| 20260507093829 | 58 | 220 | 0.0 | 0.0 | 0.00 | 0.00 | 0.00 | 78 | 1016.9 |
| 20260507093324 | 58 | 220 | 0.0 | 0.0 | 0.00 | 0.00 | 0.00 | 78 | 1017.0 |
| 20260507092825 | 58 | 220 | 0.0 | 0.0 | 0.00 | 0.00 | 0.00 | 77 | 1017.1 |
| 20260507092325 | 58 | 220 | 0.0 | 0.0 | 0.00 | 0.00 | 0.00 | 77 | 1017.1 |
| 20260507091823 | 58 | 220 | 0.0 | 0.0 | 0.00 | 0.00 | 0.00 | 77 | 1017.1 |
| 20260507091335 | 58 | 220 | 0.0 | 0.0 | 0.00 | 0.00 | 0.00 | 77 | 1017.1 |
| 20260507091052 | 58 | 220 | 0.0 | 0.0 | 0.00 | 0.00 | 0.00 | 77 | 1017.2 |
| 20260507090318 | 58 | 220 | 0.0 | 0.9 | 0.00 | 0.00 | 0.00 | 76 | 1017.2 |
| 20260507085820 | 58 | 220 | 0.0 | 0.9 | 0.00 | 0.00 | 0.00 | 76 | 1017.3 |
| 20260507085317 | 59 | 220 | 0.0 | 0.9 | 0.00 | 0.00 | 0.00 | 76 | 1017.3 |
| 20260507084817 | 59 | 220 | 0.0 | 1.7 | 0.00 | 0.00 | 0.00 | 76 | 1017.4 |
| 20260507084318 | 58 | 220 | 0.0 | 1.7 | 0.00 | 0.00 | 0.00 | 76 | 1017.4 |
| 20260507083817 | 58 | 220 | 0.0 | 0.9 | 0.00 | 0.00 | 0.00 | 76 | 1017.4 |
| 20260507083317 | 59 | 220 | 0.0 | 0.9 | 0.00 | 0.00 | 0.00 | 76 | 1017.4 |
| 20260507082815 | 59 | 220 | 0.0 | 0.9 | 0.00 | 0.00 | 0.00 | 76 | 1017.5 |
| 20260507082313 | 59 | 220 | 0.0 | 1.7 | 0.00 | 0.00 | 0.00 | 75 | 1017.5 |
| 20260507081811 | 59 | 220 | 0.0 | 1.7 | 0.00 | 0.00 | 0.00 | 75 | 1017.5 |
| 20260507081309 | 59 | 220 | 0.0 | 0.9 | 0.00 | 0.00 | 0.00 | 75 | 1017.4 |
| 20260507080808 | 59 | 220 | 0.9 | 1.7 | 0.00 | 0.00 | 0.00 | 75 | 1017.5 |
| 20260507080306 | 60 | 220 | 0.9 | 1.7 | 0.00 | 0.00 | 0.00 | 74 | 1017.6 |
| 20260507075806 | 60 | 220 | 0.9 | 1.7 | 0.00 | 0.00 | 0.00 | 75 | 1017.5 |
| 20260507075307 | 60 | 220 | 0.9 | 1.7 | 0.00 | 0.00 | 0.00 | 74 | 1017.5 |
| 20260507074806 | 60 | 220 | 0.0 | 1.7 | 0.00 | 0.00 | 0.00 | 74 | 1017.5 |
| 20260507074302 | 60 | 220 | 0.0 | 1.7 | 0.00 | 0.00 | 0.00 | 74 | 1017.5 |
| 20260507073803 | 60 | 220 | 0.0 | 1.7 | 0.00 | 0.00 | 0.00 | 74 | 1017.4 |
| 20260507073302 | 60 | 220 | 0.9 | 2.6 | 0.00 | 0.00 | 0.00 | 74 | 1017.6 |
| 20260507073031 | 60 | 220 | 0.9 | 2.6 | 0.00 | 0.00 | 0.00 | 74 | 1017.5 |
| 20260507072301 | 60 | 220 | 0.0 | 1.7 | 0.00 | 0.00 | 0.00 | 74 | 1017.5 |
| 20260507071800 | 60 | 220 | 0.0 | 1.7 | 0.00 | 0.00 | 0.00 | 74 | 1017.6 |
| 20260507071301 | 60 | 220 | 0.9 | 1.7 | 0.00 | 0.00 | 0.00 | 74 | 1017.7 |
| 20260507071028 | 60 | 220 | 0.0 | 1.7 | 0.00 | 0.00 | 0.00 | 73 | 1017.7 |
| 20260507070529 | 60 | 220 | 0.0 | 1.7 | 0.00 | 0.00 | 0.00 | 73 | 1017.7 |
| 20260507065254 | 60 | 220 | 1.7 | 2.6 | 0.00 | 0.00 | 0.00 | 73 | 1017.8 |
| 20260507064754 | 61 | 220 | 1.7 | 2.6 | 0.00 | 0.00 | 0.00 | 73 | 1017.8 |
| 20260507064253 | 61 | 220 | 1.7 | 3.5 | 0.00 | 0.00 | 0.00 | 73 | 1017.8 |
| 20260507063751 | 61 | 220 | 1.7 | 3.5 | 0.00 | 0.00 | 0.00 | 72 | 1017.8 |
| 20260507063249 | 61 | 220 | 1.7 | 3.5 | 0.00 | 0.00 | 0.00 | 72 | 1017.8 |
| 20260507062750 | 61 | 220 | 0.9 | 2.6 | 0.00 | 0.00 | 0.00 | 71 | 1017.9 |
| 20260507062251 | 61 | 220 | 0.9 | 2.6 | 0.00 | 0.00 | 0.00 | 71 | 1017.8 |
| 20260507061750 | 61 | 220 | 0.9 | 2.6 | 0.00 | 0.00 | 0.00 | 71 | 1017.8 |
| 20260507061518 | 61 | 220 | 0.9 | 2.6 | 0.00 | 0.00 | 0.00 | 71 | 1017.8 |
| 20260507060746 | 62 | 220 | 0.9 | 2.6 | 0.00 | 0.00 | 0.00 | 71 | 1017.9 |
| 20260507060246 | 62 | 220 | 1.7 | 3.5 | 0.00 | 0.00 | 0.00 | 71 | 1017.9 |
| 20260507055742 | 62 | 220 | 1.7 | 3.5 | 0.00 | 0.00 | 0.00 | 71 | 1017.8 |
| 20260507055241 | 62 | 220 | 1.7 | 3.5 | 0.00 | 0.00 | 0.00 | 70 | 1017.9 |
| 20260507054742 | 62 | 220 | 1.7 | 3.5 | 0.00 | 0.00 | 0.00 | 70 | 1017.8 |
| 20260507054240 | 62 | 220 | 1.7 | 3.5 | 0.00 | 0.00 | 0.00 | 70 | 1017.8 |
| 20260507053738 | 62 | 220 | 1.7 | 3.5 | 0.00 | 0.00 | 0.00 | 69 | 1017.8 |
| 20260507053238 | 62 | 220 | 1.7 | 3.5 | 0.00 | 0.00 | 0.00 | 69 | 1017.7 |
| 20260507052737 | 63 | 220 | 2.6 | 3.5 | 0.00 | 0.00 | 0.00 | 69 | 1017.7 |
| 20260507052234 | 63 | 220 | 2.6 | 4.3 | 0.00 | 0.00 | 0.00 | 69 | 1017.7 |
| 20260507051735 | 63 | 220 | 2.6 | 4.3 | 0.00 | 0.00 | 0.00 | 69 | 1017.7 |
| 20260507051232 | 63 | 220 | 2.6 | 4.3 | 0.00 | 0.00 | 0.00 | 69 | 1017.6 |
| 20260507051002 | 63 | 220 | 1.7 | 4.3 | 0.00 | 0.00 | 0.00 | 69 | 1017.7 |
| 20260507050501 | 64 | 220 | 1.7 | 3.5 | 0.00 | 0.00 | 0.00 | 69 | 1017.6 |
| 20260507045729 | 64 | 220 | 1.7 | 2.6 | 0.00 | 0.00 | 0.00 | 68 | 1017.5 |
| 20260507045231 | 64 | 220 | 1.7 | 2.6 | 0.00 | 0.00 | 0.00 | 68 | 1017.5 |
| 20260507044728 | 64 | 220 | 2.6 | 4.3 | 0.00 | 0.00 | 0.00 | 68 | 1017.5 |
| 20260507044459 | 64 | 220 | 2.6 | 4.3 | 0.00 | 0.00 | 0.00 | 68 | 1017.4 |
| 20260507043725 | 64 | 220 | 1.7 | 3.5 | 0.00 | 0.00 | 0.00 | 68 | 1017.4 |
| 20260507043224 | 64 | 220 | 2.6 | 3.5 | 0.00 | 0.00 | 0.00 | 68 | 1017.4 |
| 20260507042725 | 64 | 220 | 2.6 | 4.3 | 0.00 | 0.00 | 0.00 | 67 | 1017.4 |
| 20260507042222 | 64 | 220 | 3.5 | 6.1 | 0.00 | 0.00 | 0.00 | 67 | 1017.4 |